Tampa Macdill AFB, FL

2:02 PM EDT on October 19, 2019 (GMT -0400)
MacDill Air Force Base

Weather History for KMCF - August, 2019

Change the Weather History Date:

Saturday, August 17, 2019

  Actual Average Record
Temperature  
Mean Temperature 77 °F -  
Max Temperature 81 °F 88 °F 95 °F (1997)
Min Temperature 73 °F 73 °F 73 °F (1996)
Cooling Degree Days 12    
Growing Degree Days 27 (Base 50)    
Moisture  
Dew Point 73 °F    
Average Humidity 86    
Maximum Humidity 94    
Minimum Humidity 74    
Precipitation  
Precipitation 2.05 in - - ()
Sea Level Pressure  
Sea Level Pressure 30.08 in    
Wind  
Wind Speed 6 mph (SSW)    
Max Wind Speed 17 mph    
Max Gust Speed 25 mph    
Visibility 8 miles    
Events Rain    
Averages and records for this station are not official NWS values.
T = Trace of Precipitation, MM = Missing Value Source: NWS Daily Summary

Daily Weather History Graph

Daily Weather History Graph

Search for Another Location

Airport or City:

Astronomy

Aug. 17, 2019 Rise Set
Actual Time 7:01 AM EDT 8:06 PM EDT
Civil Twilight 6:36 AM EDT 8:31 PM EDT
Nautical Twilight 6:07 AM EDT 8:59 PM EDT
Astronomical Twilight 5:38 AM EDT 9:29 PM EDT
Moon 9:42 PM EDT (8/17) 8:43 AM EDT (8/17)
Length of Visible Light 13h 54m
Length of Day
13h 05m
Waning Gibbous, 96% of the Moon is Illuminated
Aug 17
Waning Gibbous
Aug 23
Last Quarter
Aug 30
New
Sep 5
First Quarter
Sep 14
Full

Hourly Weather History & Observations

Time (EDT) Temp. Heat Index Dew Point Humidity Pressure Visibility Wind Dir Wind Speed Gust Speed Precip Events Conditions
12:01 AM 78.8 °F - 75.2 °F 89% 30.08 in 10.0 mi SSE 5.8 mph - N/A   Mostly Cloudy
12:06 AM 78.8 °F - 75.2 °F 89% 30.08 in 10.0 mi SSE 5.8 mph - N/A   Mostly Cloudy
12:11 AM 78.8 °F - 75.2 °F 89% 30.08 in 10.0 mi South 5.8 mph - N/A   Mostly Cloudy
12:16 AM 78.8 °F - 75.2 °F 89% 30.08 in 10.0 mi South 4.6 mph - N/A   Mostly Cloudy
12:56 AM 79.5 °F - 74.8 °F 86% 30.08 in 10.0 mi SSE 5.8 mph - N/A   Mostly Cloudy
1:56 AM 79.5 °F - 75.2 °F 87% 30.08 in 10.0 mi South 3.5 mph - N/A   Overcast
2:56 AM 79.3 °F - 74.3 °F 84% 30.05 in 10.0 mi SSE 6.9 mph - N/A   Mostly Cloudy
3:56 AM 79.5 °F - 74.5 °F 84% 30.04 in 10.0 mi SSE 5.8 mph - N/A   Mostly Cloudy
4:56 AM 78.4 °F - 73.8 °F 85% 30.03 in 10.0 mi SSE 9.2 mph - N/A   Scattered Clouds
5:46 AM 78.8 °F - 75.2 °F 89% 30.04 in 10.0 mi West 6.9 mph - N/A   Mostly Cloudy
5:49 AM 78.8 °F - 75.2 °F 89% 30.04 in 10.0 mi West 4.6 mph - N/A Rain Light Rain
5:56 AM 77.9 °F - 74.3 °F 89% 30.04 in 10.0 mi West 8.1 mph - 0.19 in Rain Heavy Rain
6:06 AM 77.0 °F - 73.4 °F 89% 30.05 in 1.6 mi West 9.2 mph - N/A Rain Heavy Rain
6:11 AM 77.0 °F - 73.4 °F 89% 30.06 in 1.0 mi WNW 9.2 mph - N/A Rain Heavy Rain
6:16 AM 77.0 °F - 73.4 °F 89% 30.06 in 1.2 mi West 10.4 mph 17.3 mph N/A Rain Heavy Rain
6:21 AM 77.0 °F - 73.4 °F 89% 30.06 in 1.6 mi West 5.8 mph 17.3 mph N/A Rain Heavy Rain
6:27 AM 77.0 °F - 73.4 °F 89% 30.07 in 2.2 mi West 5.8 mph - N/A Rain Rain
6:32 AM 77.0 °F - 73.4 °F 89% 30.08 in 4.0 mi SW 6.9 mph - N/A Rain Heavy Rain
6:42 AM 75.2 °F - 71.6 °F 89% 30.07 in 1.8 mi SW 4.6 mph - N/A Rain Heavy Rain
6:47 AM 75.2 °F - 71.6 °F 89% 30.07 in 1.4 mi Calm Calm - N/A Rain Heavy Rain
6:52 AM 75.2 °F - 71.6 °F 89% 30.08 in 3.0 mi West 4.6 mph - N/A Rain Heavy Rain
6:56 AM 74.1 °F - 71.2 °F 91% 30.08 in 4.0 mi WSW 6.9 mph - 1.26 in Rain Rain
7:10 AM 75.2 °F - 71.6 °F 89% 30.07 in 7.0 mi West 4.6 mph - N/A   Overcast
7:20 AM 75.2 °F - 71.6 °F 89% 30.07 in 10.0 mi WNW 3.5 mph - N/A Rain Light Rain
7:56 AM 74.7 °F - 71.1 °F 88% 30.07 in 7.0 mi Calm Calm - 0.11 in Rain Light Rain
8:56 AM 75.9 °F - 71.8 °F 87% 30.08 in 10.0 mi Calm Calm - 0.05 in Rain Light Rain
9:06 AM 77.0 °F - 71.6 °F 83% 30.08 in 10.0 mi SE 4.6 mph - N/A   Scattered Clouds
9:56 AM 79.7 °F - 73.2 °F 80% 30.09 in 10.0 mi SE 8.1 mph - 0.00 in   Mostly Cloudy
10:21 AM 78.8 °F - 73.4 °F 83% 30.13 in 10.0 mi SW 11.5 mph - N/A   Mostly Cloudy
10:22 AM 78.8 °F - 73.4 °F 83% 30.13 in 10.0 mi WSW 13.8 mph 20.7 mph N/A   Light Drizzle
10:34 AM 75.2 °F - 71.6 °F 89% 30.13 in 10.0 mi WSW 12.7 mph - N/A Rain Rain
10:44 AM 75.2 °F - 71.6 °F 89% 30.14 in 3.0 mi SW 15.0 mph 21.9 mph N/A Rain Heavy Rain
10:49 AM 73.4 °F - 71.6 °F 94% 30.14 in 1.2 mi SW 12.7 mph 25.3 mph N/A Rain Heavy Rain
10:54 AM 75.2 °F - 71.6 °F 89% 30.14 in 0.8 mi SSW 9.2 mph 25.3 mph N/A Rain Heavy Rain
10:56 AM 74.3 °F - 71.8 °F 92% 30.14 in 0.9 mi SSW 10.4 mph 25.3 mph 0.31 in Rain Heavy Rain
11:01 AM - - - N/A% - 1.0 mi SSW 13.8 mph - N/A   Overcast
11:02 AM 75.2 °F - 71.6 °F 89% 30.14 in 1.6 mi SSW 15.0 mph - N/A Rain Light Rain
11:07 AM 75.2 °F - 71.6 °F 89% 30.14 in 3.0 mi South 17.3 mph - N/A Rain Rain
11:26 AM 75.2 °F - 69.8 °F 83% 30.13 in 5.0 mi SSW 6.9 mph 23.0 mph N/A   Haze
11:27 AM 75.2 °F - 69.8 °F 83% 30.13 in 5.0 mi SSW 5.8 mph 23.0 mph N/A Rain Light Rain
11:56 AM 77.5 °F - 72.3 °F 84% 30.12 in 10.0 mi SSW 8.1 mph - 0.13 in Rain Light Rain
12:56 PM 77.9 °F - 73.6 °F 86% 30.13 in 10.0 mi South 8.1 mph - 0.00 in   Mostly Cloudy
1:56 PM 79.0 °F - 73.9 °F 84% 30.11 in 10.0 mi South 10.4 mph - N/A   Mostly Cloudy
2:56 PM 79.2 °F - 74.1 °F 84% 30.09 in 10.0 mi SSW 12.7 mph - N/A   Scattered Clouds
3:56 PM 80.8 °F 85.4 °F 72.9 °F 77% 30.05 in 10.0 mi SSW 10.4 mph - N/A   Scattered Clouds
4:15 PM 80.6 °F 85.4 °F 73.4 °F 79% 30.05 in 10.0 mi SW 9.2 mph - N/A Rain Light Rain
4:25 PM 80.6 °F 84.6 °F 71.6 °F 74% 30.05 in 10.0 mi SW 9.2 mph - N/A   Mostly Cloudy
4:33 PM 80.6 °F 84.6 °F 71.6 °F 74% 30.06 in 10.0 mi SSW 10.4 mph - N/A Rain Light Rain
4:44 PM 80.6 °F 84.6 °F 71.6 °F 74% 30.06 in 10.0 mi SSW 9.2 mph - N/A   Mostly Cloudy
4:46 PM 80.6 °F 84.6 °F 71.6 °F 74% 30.06 in 10.0 mi SSW 8.1 mph - N/A   Light Drizzle
4:56 PM 79.9 °F - 72.3 °F 78% 30.06 in 10.0 mi SSW 9.2 mph - 0.00 in Rain Light Rain
5:00 PM 80.6 °F 84.6 °F 71.6 °F 74% 30.06 in 10.0 mi SSW 9.2 mph - N/A   Mostly Cloudy
5:56 PM 81.3 °F 85.9 °F 72.5 °F 74% 30.07 in 10.0 mi SSW 10.4 mph - 0.00 in   Mostly Cloudy
6:27 PM 80.6 °F 85.4 °F 73.4 °F 79% 30.07 in 10.0 mi SSW 6.9 mph - N/A   Light Drizzle
6:35 PM 80.6 °F 85.4 °F 73.4 °F 79% 30.07 in 10.0 mi SW 3.5 mph - N/A   Scattered Clouds
6:56 PM 80.1 °F 84.6 °F 74.3 °F 82% 30.07 in 10.0 mi SW 4.6 mph - 0.00 in   Partly Cloudy
7:56 PM 78.8 °F - 74.5 °F 87% 30.07 in 10.0 mi Calm Calm - N/A   Mostly Cloudy
8:32 PM 78.8 °F - 75.2 °F 89% 30.07 in 10.0 mi Calm Calm - N/A   Light Drizzle
8:38 PM 78.8 °F - 75.2 °F 89% 30.07 in 10.0 mi Calm Calm - N/A   Mostly Cloudy
8:56 PM 77.2 °F - 74.7 °F 92% 30.07 in 10.0 mi Calm Calm - 0.00 in   Partly Cloudy
9:05 PM 77.0 °F - 75.2 °F 94% 30.07 in 10.0 mi Calm Calm - N/A Rain Light Rain
9:14 PM 77.0 °F - 75.2 °F 94% 30.07 in 10.0 mi Calm Calm - N/A   Mostly Cloudy
9:22 PM 77.0 °F - 75.2 °F 94% 30.07 in 10.0 mi Calm Calm - N/A   Light Drizzle
9:43 PM 77.0 °F - 75.2 °F 94% 30.08 in 10.0 mi Calm Calm - N/A   Overcast
9:44 PM 77.0 °F - 75.2 °F 94% 30.08 in 10.0 mi Calm Calm - N/A   Light Drizzle
9:56 PM 77.0 °F - 74.8 °F 93% 30.09 in 10.0 mi ESE 3.5 mph - 0.00 in Rain Light Rain
9:57 PM 77.0 °F - 75.2 °F 94% 30.09 in 10.0 mi ESE 3.5 mph - N/A   Scattered Clouds
10:18 PM 77.0 °F - 75.2 °F 94% 30.09 in 10.0 mi ESE 4.6 mph - N/A   Light Drizzle
10:28 PM 77.0 °F - 75.2 °F 94% 30.10 in 10.0 mi SE 3.5 mph - N/A   Scattered Clouds
10:56 PM 79.2 °F - 73.0 °F 81% 30.10 in 10.0 mi Calm Calm - 0.00 in   Scattered Clouds
11:56 PM 79.2 °F - 74.1 °F 84% 30.09 in 10.0 mi SSE 5.8 mph - N/A   Clear